User: anonymous   Login
Location: Unspecified
(0.0000°N, 0.0000°E)
Time: 10:23:30
(UTC+00:00)
Language:

TIANWANG 1C (TW-1C) - Orbit

View from above orbital plane
View from above orbital plane
View from above satellite
View from above satellite

Ground track
Ground track

The orbit data is extracted from the following two-line orbital elements,

1 40926U 15051B   21057.93770894  .05243455  22735-5  10757-2 0  9999
2 40926  97.0197 120.9742 0006610 258.8279 223.7215 16.31196197307135
Epoch (UTC): 26 February 2021 22:30:18
Eccentricity: 0.0006610
inclination: 97.0197°
perigee height: 185 km
apogee height: 193 km
right ascension of ascending node: 120.9742°
argument of perigee: 258.8279°
revolutions per day: 16.31196197
mean anomaly at epoch: 223.7215°
orbit number at epoch: 30713

The dashed part of the orbit path shows where the satellite is in the earth's shadow,  

DLR